星链-1493 (STARLINK-1493 )

导读 | 豆包AI

STARLINK-1493是美国太空探索技术公司(SpaceX)星链(Starlink)项目的卫星,于2020年6月13日发射入轨,属于星链互联网星座的组成部分,旨在为全球提供低延迟、高速率的卫星宽带互联网服务,目前已在轨运行近6年,支撑全球多地的卫星互联网接入服务。

基本信息
目录编号:
45759
目录名称:
STARLINK-1493
国际标识:
2020-038AF
轨道中心:
EARTH
卫星名称:
星链-1493
卫星全名:
星链-1493 (STARLINK-1493 )
卫星状态:
在轨 (已飞行2121 天)
发射日期:
2020-06-13 UTC
国别 :
美国 (US)
星等 :
--
轨道信息
数据来源 国际轨道数据
星历时间: 2026-04-04T03:36:11+0800
6小时前
查看轨道信息
半长轴: 6781.679km
偏心率: 0.0005093
轨道倾角: 53.050°
近地点辐角 82.919°
升交点赤经 83.512°
平近点角 277.240°
近地点: 400.088km
远地点: 406.996km
周期: 92.633分钟
每日圈数: 15.545225
详细信息
固有亮度:
5
最大亮度:
2.5
卫星平台:
Starlink V1.0
覆盖范围:
全球
运营商:
太空探索技术公司
运营商所在国:
美国
制造商(研发单位):
太空探索技术公司
制造商所在国:
美国
使用方式:
暂无
卫星简介
星链(Starlink)计划是由太空探索技术公司(SpaceX)提出的一个巨型低轨卫星互联网星座项目,计划在2019年至2024年间在太空搭建由约1.2万颗卫星组成的“星链”网络,其中1584颗将部署在地球上空550千米处的近地轨道,并从2020年开始工作。该卫星仍在工作。
2D轨道图
3D轨道图
轨道高度分析图
轨道倾角分析图
轨道综合分析图
查看轨道综合分析图